Weather History for Marion Regional, IL

Change the Weather History Date:

Saturday, October 12, 2013

  Actual Average Record
Temperature  
Mean Temperature 64 °F -  
Max Temperature 69 °F 70 °F 84 °F (1973)
Min Temperature 59 °F 47 °F 28 °F (1987)
Degree Days  
Heating Degree Days 1    
Growing Degree Days 14 (Base 50)    
Moisture  
Dew Point 61 °F    
Average Humidity 92    
Maximum Humidity 100    
Minimum Humidity 78    
Precipitation  
Precipitation 0.01 in - - ()
Sea Level Pressure  
Sea Level Pressure 30.07 in    
Wind  
Wind Speed 2 mph (SSW)    
Max Wind Speed 9 mph    
Max Gust Speed -    
Visibility 8 miles    
Events Fog , Rain    
Averages and records for this station are not official NWS values.
T = Trace of Precipitation, MM = Missing Value Source: NWS Daily Summary

Daily Weather History Graph

Daily Weather History Graph

Search for Another Location

Airport:

Trip Planner

Search our weather history database for the weather conditions in past years. The results will help you decide how hot, cold, wet, or windy it might be!

Date:

Astronomy

Oct. 12, 2013 Rise Set
Actual Time 7:01 AM CDT 6:22 PM CDT
Civil Twilight 6:35 AM CDT 6:48 PM CDT
Nautical Twilight 6:05 AM CDT 7:19 PM CDT
Astronomical Twilight 5:34 AM CDT 7:49 PM CDT
Moon 2:25 PM CDT (10/12) 12:11 AM CDT (10/12)
Length of Visible Light 12h 13m
Length of Day
11h 20m
First Quarter, 59% of the Moon is Illuminated
Oct 12
First Quarter
Oct 18
Full
Oct 26
Last Quarter
Nov 3
New
Nov 9
First Quarter

Hourly Weather History & Observations

Time (CDT) Temp. Dew Point Humidity Pressure Visibility Wind Dir Wind Speed Gust Speed Precip Events Conditions
12:15 AM 62.6 °F 59.0 °F 88% 30.01 in 10.0 mi Calm Calm - N/A   Clear
12:35 AM 62.6 °F 59.0 °F 88% 30.01 in 10.0 mi Calm Calm - N/A   Clear
12:55 AM 62.6 °F 59.0 °F 88% 30.01 in 10.0 mi Calm Calm - N/A   Clear
1:15 AM 62.6 °F 59.0 °F 88% 30.01 in 10.0 mi Calm Calm - N/A   Clear
1:35 AM 60.8 °F 59.0 °F 94% 30.01 in 10.0 mi Calm Calm - N/A   Clear
1:55 AM 62.6 °F 59.0 °F 88% 30.01 in 10.0 mi Calm Calm - N/A   Mostly Cloudy
2:15 AM 62.6 °F 59.0 °F 88% 30.01 in 10.0 mi Calm Calm - N/A   Mostly Cloudy
2:35 AM 62.6 °F 59.0 °F 88% 30.01 in 10.0 mi SSE 3.5 mph - N/A   Mostly Cloudy
2:55 AM 62.6 °F 59.0 °F 88% 30.01 in 10.0 mi SSE 3.5 mph - N/A   Mostly Cloudy
3:15 AM 60.8 °F 59.0 °F 94% 30.00 in 10.0 mi Calm Calm - N/A   Scattered Clouds
3:35 AM 60.8 °F 59.0 °F 94% 30.00 in 10.0 mi Calm Calm - N/A   Clear
3:55 AM 60.8 °F 57.2 °F 88% 30.00 in 10.0 mi Calm Calm - N/A   Clear
4:15 AM 60.8 °F 59.0 °F 94% 30.00 in 10.0 mi Calm Calm - N/A   Clear
4:35 AM 62.6 °F 59.0 °F 88% 30.00 in 10.0 mi Calm Calm - N/A   Clear
4:55 AM 60.8 °F 59.0 °F 94% 30.00 in 10.0 mi South 3.5 mph - N/A   Clear
5:15 AM 60.8 °F 57.2 °F 88% 30.01 in 10.0 mi Calm Calm - N/A   Clear
5:35 AM 60.8 °F 57.2 °F 88% 30.01 in 10.0 mi Calm Calm - N/A   Clear
5:55 AM 60.8 °F 57.2 °F 88% 30.02 in 10.0 mi Calm Calm - N/A   Clear
6:15 AM 59.0 °F 57.2 °F 94% 30.02 in 10.0 mi SSE 3.5 mph - N/A   Clear
6:55 AM 60.8 °F 59.0 °F 94% 30.02 in 20.0 mi SSE 6.9 mph - N/A   Scattered Clouds
7:55 AM 62.6 °F 59.0 °F 88% 30.03 in 20.0 mi SE 9.2 mph - N/A   Scattered Clouds
8:55 AM 66.2 °F 60.8 °F 83% 30.06 in 20.0 mi South 6.9 mph - N/A   Scattered Clouds
9:55 AM 69.8 °F 62.6 °F 78% 30.08 in 20.0 mi South 5.8 mph - N/A   Overcast
10:55 AM 69.8 °F 62.6 °F 78% 30.09 in 20.0 mi WSW 5.8 mph - N/A   Mostly Cloudy
11:55 AM 68.0 °F 62.6 °F 83% 30.12 in 15.0 mi SSW 6.9 mph - N/A Rain Light Rain
12:09 PM 66.2 °F 62.6 °F 88% 30.10 in 2.0 mi South 9.2 mph - N/A Rain Light Rain
12:53 PM 66.2 °F 64.4 °F 94% 30.07 in 3.0 mi SE 9.2 mph - N/A Rain Light Rain
1:53 PM 68.0 °F 66.2 °F 94% 30.05 in 7.0 mi SSW 8.1 mph - N/A   Overcast
2:18 PM 69.8 °F 66.2 °F 88% 30.06 in 7.0 mi SW 9.2 mph - N/A   Overcast
2:52 PM 69.8 °F 66.2 °F 88% 30.07 in 10.0 mi West 9.2 mph - N/A   Overcast
3:53 PM 69.8 °F 66.2 °F 88% 30.07 in 10.0 mi WSW 8.1 mph - N/A   Overcast
4:51 PM 69.8 °F 66.2 °F 88% 30.07 in 12.0 mi WNW 8.1 mph - N/A   Overcast
5:50 PM 69.8 °F 66.2 °F 88% 30.08 in 15.0 mi WSW 4.6 mph - N/A   Scattered Clouds
6:35 PM 66.2 °F 64.4 °F 94% 30.07 in 4.0 mi Calm Calm - N/A   Scattered Clouds
6:55 PM 64.4 °F 64.4 °F 100% 30.08 in 0.5 mi Calm Calm - N/A Fog Fog
7:15 PM 64.4 °F 64.4 °F 100% 30.09 in 0.2 mi Calm Calm - N/A Fog Fog
7:35 PM 64.4 °F 62.6 °F 94% 30.09 in 0.2 mi Calm Calm - N/A Fog Fog
7:55 PM 62.6 °F 62.6 °F 100% 30.10 in 0.2 mi Calm Calm - N/A Fog Fog
8:15 PM 62.6 °F 62.6 °F 100% 30.11 in 0.2 mi Calm Calm - N/A Fog Fog
8:35 PM 62.6 °F 60.8 °F 94% 30.12 in 0.2 mi Calm Calm - N/A Fog Fog
8:55 PM 60.8 °F 60.8 °F 100% 30.12 in 0.2 mi Calm Calm - N/A Fog Fog
9:15 PM 62.6 °F 62.6 °F 100% 30.13 in 0.2 mi Calm Calm - N/A Fog Fog
9:35 PM 60.8 °F 59.0 °F 94% 30.14 in 0.2 mi Calm Calm - N/A Fog Fog
9:55 PM 60.8 °F 60.8 °F 100% 30.15 in 0.2 mi Calm Calm - N/A Fog Fog
10:15 PM 59.0 °F 59.0 °F 100% 30.16 in 0.2 mi Calm Calm - N/A Fog Fog
10:35 PM 59.0 °F 59.0 °F 100% 30.16 in 0.5 mi Calm Calm - N/A Fog Fog
10:55 PM 60.8 °F 60.8 °F 100% 30.16 in 0.5 mi Calm Calm - 0.01 in Fog Fog
11:15 PM 64.4 °F 62.6 °F 94% 30.16 in 0.8 mi Calm Calm - N/A   Overcast
11:35 PM 64.4 °F 62.6 °F 94% 30.17 in 4.0 mi NW 3.5 mph - N/A   Overcast
11:55 PM 62.6 °F 62.6 °F 100% 30.17 in 7.0 mi NW 4.6 mph - N/A   Mostly Cloudy